This demonstration page uses our WeatherBlox Daily Observations layout. Learn more.

Left ArrowRight Arrow

Hourly Observations for February 19, 2019

Temp ( °F °C ) Dew Point ( °F °C ) Humidity (%) Winds ( mph kmh ) Pressure ( in mb ) Visibility ( mi km ) Precip ( " mm )
12:52 am 00:52 Partly Cloudy with Patchy Fog 0 -17.8 -2 -18.9 91 91 NNW 7 11 30.62 1037 7 11 0.00 0.00
1:52 am 01:52 Mostly Cloudy with Patchy Fog 2 -16.7 -2 -18.9 83 83 N 3 6 30.63 1037 7 11 0.00 0.00
2:52 am 02:52 Mostly Cloudy with Patchy Fog 4 -15.6 0 -17.8 83 83 N 5 7 30.64 1038 7 11 0.00 0.00
3:20 am 03:20 Mostly Clear with Patchy Fog -1 -18.3 -5 -20.6 82 82 N 7 11 30.71 1040 7 11 0.00 0.00
3:52 am 03:52 Mostly Clear with Patchy Fog 0 -17.8 -4 -20 83 83 NNW 5 7 30.62 1037 7 11 0.00 0.00
4:23 am 04:23 Mostly Cloudy with Mist and Fog -2 -18.9 -5 -20.6 87 87 N 5 7 30.69 1039 1 2 0.00 0.00
4:34 am 04:34 Mostly Cloudy with Freezing Fog -3 -19.4 -6 -21.1 86 86 NNW 5 7 30.69 1039 0 0 0.00 0.00
4:46 am 04:46 Partly Cloudy with Mist and Fog -2 -19 -8 -22 77 77 N 6 9 30.69 1039 3 5 0.00 0.00
4:52 am 04:52 Hazy -3 -19.4 -8 -22.2 79 79 NNW 6 9 30.62 1037 4 6 0.00 0.00
5:52 am 05:52 Mostly Clear with Mist and Fog -3 -19.4 -8 -22.2 79 79 N 5 7 30.62 1037 3 5 0.00 0.00
6:09 am 06:09 Mostly Clear with Mist and Fog -4 -20 -8 -22.2 83 83 N 7 11 30.69 1039 3 4 0.00 0.00
6:38 am 06:38 Mostly Clear with Mist and Fog -3 -19.4 -9 -22.8 75 75 NNW 6 9 30.68 1039 4 6 0.00 0.00
6:52 am 06:52 Mostly Clear with Mist and Fog -3 -19.4 -7 -21.7 82 82 NNW 5 7 30.61 1037 5 8 0.00 0.00
7:10 am 07:10 Partly Cloudy with Mist and Fog -3 -19.4 -7 -21.7 82 82 NW 5 7 30.68 1039 5 8 0.00 0.00
7:52 am 07:52 Mostly Cloudy with Mist and Fog -2 -18.9 -7 -21.7 79 79 N 3 6 30.62 1037 6 10 0.00 0.00
8:52 am 08:52 Cloudy with Mist and Fog 2 -16.7 -2 -18.9 83 83 N 6 9 30.61 1037 5 8 0.00 0.00
9:52 am 09:52 Cloudy with Mist and Fog 6 -14.4 1 -17.2 79 79 NW 3 6 30.59 1036 5 8 0.00 0.00
10:52 am 10:52 Cloudy with Mist and Fog 13 -10.6 7 -13.9 77 77 Calm 30.55 1034 6 10 0.00 0.00
11:52 am 11:52 Cloudy 19 -7.2 11 -11.7 71 71 NE 3 6 30.50 1033 8 13 0.00 0.00
12:52 pm 12:52 Cloudy 20 -6.7 11 -11.7 68 68 E 8 13 30.46 1032 9 14 0.00 0.00
1:52 pm 13:52 Cloudy 21 -6.1 11 -11.7 65 65 ENE 7 11 30.40 1030 10 16 0.00 0.00
2:52 pm 14:52 Cloudy 21 -6.1 12 -11.1 68 68 ENE 7 11 30.36 1028 10 16 0.00 0.00
3:52 pm 15:52 Cloudy 22 -5.6 13 -10.6 68 68 ENE 9 15 30.35 1028 10 16 0.00 0.00
4:35 pm 16:35 Cloudy with Light Snow 22 -5.6 14 -10 71 71 ESE 10 17 30.37 1028 2 3 0.00 0.03
4:38 pm 16:38 Cloudy with Light Snow 22 -5.6 14 -10 71 71 E 12 19 30.38 1029 1 1 0.00 0.03
4:45 pm 16:45 Cloudy with Snow 21 -6.1 15 -9.4 78 78 ESE 13 20 30.38 1029 1 1 0.00 0.03
4:52 pm 16:52 Cloudy with Heavy Snow 21 -6.1 15 -9.4 78 78 ESE 12 19 30.36 1028 0 0 0.01 0.25
5:04 pm 17:04 Cloudy with Snow 20 -6.7 16 -8.9 85 85 ESE 9 15 30.38 1029 1 1 0.00 0.03
5:09 pm 17:09 Mostly Cloudy with Snow 20 -6.7 16 -8.9 85 85 E 8 13 30.37 1029 1 1 0.00 0.03
5:20 pm 17:20 Cloudy with Heavy Snow 22 -5.6 16 -8.9 78 78 VRB 7 11 30.34 1027 0 0 0.01 0.25
5:30 pm 17:30 Cloudy with Light Snow 20 -6.7 15 -9.4 81 81 NE 9 15 30.31 1026 1 1 0.02 0.51
5:35 pm 17:35 Cloudy with Light Snow 20 -6.7 15 -9.4 81 81 ENE 9 15 30.32 1027 2 2 0.02 0.51
5:48 pm 17:48 Cloudy with Light Snow 19 -7 16 -9 86 86 E 10 17 30.32 1027 5 8 0.02 0.51
5:52 pm 17:52 Cloudy 20 -6.7 15 -9.4 81 81 E 10 17 30.30 1026 7 11 0.02 0.51
6:03 pm 18:03 Cloudy with Light Snow 20 -6.7 15 -9.4 81 81 E 9 15 30.32 1027 7 11 0.01 0.25
6:10 pm 18:10 Cloudy with Light Snow 20 -6.7 15 -9.4 81 81 ESE 8 13 30.32 1027 2 3 0.01 0.25
6:15 pm 18:15 Cloudy with Light Snow 21 -6.1 15 -9.4 78 78 E 10 17 30.31 1026 2 2 0.01 0.25
6:39 pm 18:39 Cloudy with Light Snow 20 -6.7 15 -9.4 81 81 E 13 20 30.28 1025 2 3 0.02 0.51
6:49 pm 18:49 Cloudy with Light Snow 19 -7 16 -9 86 86 ENE 8 13 30.27 1025 5 8 0.02 0.51
6:52 pm 18:52 Cloudy with Light Snow 21 -6.1 15 -9.4 78 78 VRB 6 9 30.25 1025 5 8 0.02 0.51
7:08 pm 19:08 Cloudy with Light Snow 21 -6.1 15 -9.4 78 78 SE 8 13 30.27 1025 3 4 0.00 0.03
7:52 pm 19:52 Cloudy with Light Snow 20 -6.7 15 -9.4 81 81 SE 6 9 30.24 1024 1 2 0.02 0.51
7:56 pm 19:56 Mostly Cloudy with Light Snow 20 -6.7 16 -8.9 85 85 ESE 7 11 30.25 1024 1 1 0.00 0.03
8:07 pm 20:07 Mostly Cloudy with Heavy Snow 20 -6.7 16 -8.9 85 85 E 8 13 30.23 1024 0 0 0.02 0.51
8:18 pm 20:18 Cloudy with Light Snow 20 -6.7 16 -8.9 85 85 ENE 8 13 30.21 1023 1 1 0.03 0.76
8:24 pm 20:24 Cloudy with Light Snow 21 -6.1 15 -9.4 78 78 ENE 10 17 30.21 1023 2 3 0.03 0.76
8:31 pm 20:31 Cloudy with Light Snow 21 -6.1 16 -8.9 81 81 E 8 13 30.19 1022 3 5 0.03 0.76
8:45 pm 20:45 Cloudy with Light Snow 21 -6.1 16 -8.9 81 81 NNE 8 13 30.16 1021 3 4 0.04 1.02
8:52 pm 20:52 Cloudy with Light Snow 22 -5.6 16 -8.9 78 78 VRB 6 9 30.17 1022 3 5 0.04 1.02
9:52 pm 21:52 Cloudy 22 -5.6 16 -8.9 78 78 ESE 12 19 30.13 1020 7 11 0.00 0.03
10:20 pm 22:20 Cloudy with Light Snow 22 -5.6 17 -8.3 82 82 E 16 26 30.13 1020 2 2 0.00 0.03
10:52 pm 22:52 Cloudy with Light Snow 22 -5.6 18 -7.8 85 85 E 10 17 30.06 1018 1 1 0.02 0.51
11:15 pm 23:15 Cloudy with Snow 22 -5.6 18 -7.8 85 85 E 7 11 30.07 1018 1 1 0.02 0.51
11:52 pm 23:52 Mostly Cloudy with Snow 23 -5 19 -7.2 85 85 E 10 17 29.97 1015 1 1 0.09 2.29

Powered by AerisWeather